Flag for South Korea Weather past 2 weeks in Incheon, South Korea

Now
52 °F

Partly sunny.


Feels Like: 50 °F
Forecast: 46 / 60 °F
Wind: 6 mph from Southwest

Location: Incheon International Airport

Current Time: Apr 22, 2015 at 8:56:47 AM

Latest Report: Apr 22, 2015 at 8:30 AM


Visibility: N/A

Pressure: 30.04 "Hg

Humidity: 58%

Dew point: 37 °F

Location of IncheonLocation

Historic Weather in Incheon — Graph

°F

Incheon temperature yesterday

Maximum temperature yesterday: 63 °F (at 2:00 PM)
Minimum temperature yesterday: 41 °F (at 6:00 AM)
Average temperature yesterday: 51 °F

Past Weeks' High & Low Weather Summary

 TemperatureHumidityPressure
High68 °F (Apr 18, 3:00 PM)94% (Apr 19, 10:30 AM)30.33 "Hg (Apr 19, 10:30 AM)
Low36 °F (Apr 9, 4:00 AM)11% (Apr 18, 1:00 PM)29.62 "Hg (Apr 20, 3:00 AM)
Average50 °F60%30.02 "Hg
* Reported Apr 7 7:00 AM — Apr 22 7:30 AM, Incheon, Weather by CustomWeather, © 2015

Note: Actual official high and low records may vary slightly from our data, if they occured in-between our weather recording intervals... More about our weather records

Advertising

Incheon weather history for previous 24 hours

 ConditionsComfort  
Time TempWeatherWind HumidityBarometerVisibility
7:30 AM
Wed, Apr 22
52 °FPassing clouds.7 mph62%30.04 "HgN/A
7:00 AM50 °FSunny.13 mph62%30.01 "Hg10 mi
6:30 AM48 °FClear.13 mph66%30.01 "Hg10 mi
5:30 AM48 °FClear.7 mph66%30.01 "Hg10 mi
5:00 AM50 °FClear.10 mph62%30.01 "Hg10 mi
4:30 AM46 °FClear.10 mph71%30.01 "Hg10 mi
4:00 AM46 °FClear.10 mph76%30.01 "Hg10 mi
3:30 AM46 °FClear.13 mph71%30.01 "Hg10 mi
3:00 AM48 °FClear.9 mph66%30.04 "Hg10 mi
2:30 AM46 °FClear.7 mph71%30.04 "Hg10 mi
2:00 AM46 °FClear.12 mph71%30.01 "Hg10 mi
1:30 AM46 °FClear.10 mph76%30.04 "Hg10 mi
1:00 AM46 °FClear.8 mph66%30.04 "Hg10 mi
12:30 AM50 °FClear.9 mph54%30.04 "Hg10 mi
12:00 AM50 °FClear.6 mph50%30.04 "Hg10 mi
11:30 PM
Tue, Apr 21
50 °FClear.7 mph50%30.04 "Hg10 mi
11:00 PM50 °FClear.9 mph50%30.04 "Hg10 mi
10:30 PM48 °FClear.6 mph66%30.04 "Hg10 mi
10:00 PM45 °FClear.6 mph76%30.04 "Hg10 mi
9:30 PM46 °FClear.6 mph76%30.04 "Hg10 mi
9:00 PM45 °FClear.6 mph76%30.01 "Hg10 mi
8:30 PM52 °FClear.3 mph41%30.01 "Hg10 mi
8:00 PM50 °FSunny.7 mph47%30.01 "Hg10 mi
7:30 PM52 °FPassing clouds.6 mph47%30.01 "HgN/A
7:00 PM54 °FSunny.8 mph44%29.98 "Hg10 mi
6:30 PM54 °FSunny.10 mph38%29.98 "Hg10 mi
6:00 PM55 °FPassing clouds.8 mph33%29.98 "HgN/A
5:30 PM57 °FPassing clouds.7 mph27%29.98 "HgN/A
5:00 PM57 °FSunny.9 mph36%29.98 "Hg10 mi
4:30 PM59 °FSunny.10 mph27%29.98 "Hg10 mi
4:00 PM59 °FSunny.13 mph25%29.98 "Hg10 mi
3:30 PM59 °FSunny.17 mph27%29.98 "Hg10 mi
3:00 PM59 °FPassing clouds.13 mph29%30.01 "HgN/A
2:30 PM63 °FSunny.12 mph22%30.01 "Hg10 mi
2:00 PM63 °FSunny.7 mph27%30.01 "Hg10 mi
1:30 PM59 °FPassing clouds.9 mph34%30.01 "HgN/A
1:00 PM59 °FPassing clouds.10 mph34%30.01 "HgN/A
12:30 PM59 °FPassing clouds.9 mph39%30.01 "HgN/A
12:00 PM59 °FSunny.9 mph36%30.01 "Hg10 mi
11:30 AM59 °FPassing clouds.8 mph48%30.01 "HgN/A
11:00 AM57 °FPassing clouds.7 mph44%30.01 "HgN/A
10:30 AM55 °FSunny.8 mph59%30.01 "Hg10 mi
10:00 AM54 °FPassing clouds.8 mph58%30.01 "HgN/A
9:30 AM54 °FSunny.9 mph63%30.01 "Hg10 mi
9:00 AM52 °FSunny.9 mph67%30.01 "Hg10 mi
8:30 AM50 °FSunny.9 mph71%30.01 "Hg10 mi
8:00 AM50 °FSunny.9 mph71%29.98 "Hg10 mi
Weather by CustomWeather, © 2015

See weather overviewHow to use our weather pages